TimeHDT,TemperatureF,Dew PointF,Humidity,Sea Level PressureIn,VisibilityMPH,Wind Direction,Wind SpeedMPH,Gust SpeedMPH,PrecipitationIn,Events,Conditions,WindDirDegrees,DateUTC
12:01 AM,21.2,10.4,63,29.76,6.0,Variable,4.6,18.4,0.00,Snow,Light Snow,0,2014-03-15 09:01:00
12:29 AM,21.2,12.2,68,29.77,2.0,SW,8.1,18.4,0.00,Snow,Light Snow,220,2014-03-15 09:29:00
12:40 AM,21.0,14.0,74,30.06,2.5,West,9.2,-,0.00,Snow,Light Snow,270,2014-03-15 09:40:00
12:44 AM,21.2,14.0,74,29.78,1.8,WSW,11.5,-,0.00,Snow,Light Snow,240,2014-03-15 09:44:00
12:52 AM,21.2,14.0,74,29.77,2.0,WSW,13.8,19.6,0.00,Snow,Light Snow,250,2014-03-15 09:52:00
12:55 AM,19.4,14.0,80,29.77,3.0,WSW,9.2,19.6,0.00,Snow,Light Snow,240,2014-03-15 09:55:00
1:01 AM,21.0,12.9,71,30.06,4.0,WSW,10.4,19.6,0.00,Snow,Light Snow,250,2014-03-15 10:01:00
1:13 AM,21.2,14.0,74,29.77,2.5,WSW,10.4,19.6,0.00,Snow,Light Snow,240,2014-03-15 10:13:00
1:24 AM,21.2,12.2,68,29.78,5.0,Calm,Calm,-,0.00,Snow,Light Snow,0,2014-03-15 10:24:00
1:52 AM,21.2,12.2,68,29.78,5.0,WSW,10.4,-,0.00,Snow,Light Snow,250,2014-03-15 10:52:00
2:01 AM,21.2,12.2,68,29.78,4.0,Variable,5.8,-,0.00,Snow,Light Snow,0,2014-03-15 11:01:00
2:15 AM,21.0,12.9,71,30.08,4.0,WSW,6.9,-,0.00,Snow,Light Snow,240,2014-03-15 11:15:00
2:41 AM,19.4,12.2,74,29.80,9.0,West,3.5,-,0.00,Snow,Light Snow,280,2014-03-15 11:41:00
3:01 AM,21.2,14.0,74,29.80,2.5,Calm,Calm,-,0.00,Snow,Light Snow,0,2014-03-15 12:01:00
3:10 AM,21.2,14.0,74,29.80,5.0,SSE,3.5,-,0.00,Snow,Light Snow,160,2014-03-15 12:10:00
3:18 AM,19.4,14.0,80,29.80,2.5,SSW,3.5,-,0.00,Snow,Light Snow,210,2014-03-15 12:18:00
3:29 AM,19.9,14.0,78,30.09,2.5,WSW,5.8,-,0.00,Snow,Light Snow,240,2014-03-15 12:29:00
3:38 AM,19.4,14.0,80,29.80,5.0,WSW,5.8,-,0.00,Snow,Light Snow,250,2014-03-15 12:38:00
4:01 AM,18.0,14.0,84,30.09,9.0,Calm,Calm,-,0.00,Snow,Light Snow,0,2014-03-15 13:01:00
4:15 AM,17.6,12.2,79,29.80,9.0,Calm,Calm,-,0.00,Snow,Light Snow,0,2014-03-15 13:15:00
4:54 AM,15.8,12.2,86,29.80,10.0,WSW,3.5,-,0.00,,Overcast,250,2014-03-15 13:54:00
5:01 AM,15.8,12.2,86,29.80,10.0,Variable,4.6,-,0.00,,Mostly Cloudy,0,2014-03-15 14:01:00
5:07 AM,15.1,12.0,88,30.09,10.0,Variable,3.5,-,0.00,,Scattered Clouds,0,2014-03-15 14:07:00
6:01 AM,14.0,7.0,74,30.09,10.0,SW,3.5,-,N/A,,Clear,230,2014-03-15 15:01:00
7:01 AM,14.0,6.1,71,30.08,10.0,SSE,5.8,-,N/A,,Mostly Cloudy,150,2014-03-15 16:01:00
8:01 AM,12.0,3.0,67,30.07,10.0,South,6.9,-,N/A,,Clear,190,2014-03-15 17:01:00
9:01 AM,14.0,5.0,67,30.04,9.0,Calm,Calm,-,0.00,,Clear,0,2014-03-15 18:01:00
10:01 AM,25.0,15.1,66,30.04,10.0,SSE,10.4,-,N/A,,Scattered Clouds,160,2014-03-15 19:01:00
11:01 AM,28.9,19.0,67,30.01,10.0,East,9.2,-,0.00,,Overcast,100,2014-03-15 20:01:00
11:09 AM,28.4,17.6,64,29.72,10.0,East,10.4,-,N/A,,Overcast,100,2014-03-15 20:09:00
11:16 AM,26.6,17.6,69,29.72,9.0,East,10.4,-,0.00,Snow,Light Snow,100,2014-03-15 20:16:00
11:21 AM,26.6,17.6,69,29.72,2.0,East,10.4,-,0.00,Snow,Light Snow,100,2014-03-15 20:21:00
11:26 AM,26.6,19.4,74,29.72,1.0,East,9.2,-,0.00,Snow,Light Snow,100,2014-03-15 20:26:00
11:38 AM,26.6,19.4,74,29.72,1.8,SSE,9.2,-,0.00,Snow,Light Snow,150,2014-03-15 20:38:00
11:45 AM,26.6,21.2,80,29.72,2.5,SSE,10.4,16.1,0.00,Snow,Light Snow,150,2014-03-15 20:45:00
12:01 PM,26.6,21.2,80,29.71,2.0,SE,12.7,17.3,0.00,Snow,Light Snow,140,2014-03-15 21:01:00
12:08 PM,26.6,21.2,80,29.70,3.0,SSE,9.2,16.1,0.00,Snow,Light Snow,150,2014-03-15 21:08:00
12:17 PM,28.4,21.2,74,29.70,6.0,SE,9.2,17.3,0.00,Snow,Light Snow,140,2014-03-15 21:17:00
12:40 PM,28.9,21.9,75,29.97,3.0,SE,11.5,-,0.00,Snow,Light Snow,130,2014-03-15 21:40:00
12:44 PM,28.4,23.0,80,29.68,1.8,SSE,11.5,-,0.00,Snow,Light Snow,150,2014-03-15 21:44:00
12:48 PM,28.4,23.0,80,29.68,0.8,SE,10.4,-,0.00,Snow,Light Snow,140,2014-03-15 21:48:00
12:56 PM,28.4,23.0,80,29.68,1.2,SE,12.7,-,0.00,Snow,Light Snow,140,2014-03-15 21:56:00
12:59 PM,28.4,23.0,80,29.67,3.0,SE,8.1,-,0.00,Snow,Light Snow,140,2014-03-15 21:59:00
1:01 PM,30.0,23.0,75,29.96,8.0,SSE,9.2,-,0.00,Snow,Light Snow,150,2014-03-15 22:01:00
1:09 PM,30.2,23.0,75,29.67,9.0,SSE,12.7,-,0.00,Snow,Light Snow,150,2014-03-15 22:09:00
1:32 PM,30.2,21.2,69,29.65,10.0,SSE,15.0,21.9,0.00,,Mostly Cloudy,150,2014-03-15 22:32:00
1:36 PM,30.2,21.2,69,29.64,10.0,SSE,15.0,21.9,0.00,,Mostly Cloudy,160,2014-03-15 22:36:00
1:50 PM,30.2,21.2,69,29.63,10.0,SSE,13.8,19.6,0.00,,Mostly Cloudy,160,2014-03-15 22:50:00
2:01 PM,32.0,21.9,66,29.91,10.0,SSE,11.5,17.3,0.00,,Mostly Cloudy,160,2014-03-15 23:01:00
2:54 PM,30.2,24.8,80,29.58,1.8,SSE,12.7,18.4,0.00,Snow,Light Snow,150,2014-03-15 23:54:00
3:01 PM,30.2,24.8,80,29.57,1.8,SE,12.7,-,0.00,Snow,Light Snow,140,2014-03-16 00:01:00
3:13 PM,30.2,24.8,80,29.57,3.0,SE,12.7,23.0,0.00,Snow,Light Snow,140,2014-03-16 00:13:00
3:34 PM,30.2,24.8,80,29.55,2.0,SSE,12.7,19.6,0.01,Snow,Light Snow,150,2014-03-16 00:34:00
3:48 PM,30.2,26.6,86,29.53,1.0,SSE,16.1,24.2,0.02,Snow,Light Snow,150,2014-03-16 00:48:00
4:01 PM,30.0,26.1,85,29.80,1.0,SSE,13.8,20.7,0.02,Snow,Light Snow,150,2014-03-16 01:01:00
4:14 PM,30.2,26.6,86,29.50,0.8,SE,16.1,28.8,0.00,Snow,Light Snow,140,2014-03-16 01:14:00
5:01 PM,32.0,28.9,88,29.73,0.8,SE,16.1,28.8,0.00,Snow,Light Snow,130,2014-03-16 02:01:00
5:12 PM,32.0,28.4,87,29.43,0.8,SE,18.4,29.9,0.00,Snow,Light Snow,130,2014-03-16 02:12:00
5:28 PM,32.0,30.2,93,29.40,0.5,SE,19.6,34.5,0.00,Fog-Snow,Light Snow,140,2014-03-16 02:28:00
5:40 PM,32.0,30.2,93,29.39,0.5,SE,18.4,31.1,0.00,Fog-Snow,Snow,140,2014-03-16 02:40:00
5:48 PM,32.0,30.2,93,29.38,0.8,ESE,21.9,31.1,0.00,Snow,Light Snow,120,2014-03-16 02:48:00
6:01 PM,32.0,30.0,92,29.65,0.8,ESE,20.7,31.1,0.00,Snow,Light Snow,120,2014-03-16 03:01:00
6:16 PM,33.8,30.2,87,29.34,1.0,ESE,19.6,27.6,0.00,Snow,Light Snow,110,2014-03-16 03:16:00
6:28 PM,33.8,30.2,87,29.33,0.8,ESE,21.9,31.1,0.00,Snow,Light Snow,120,2014-03-16 03:28:00
6:35 PM,33.8,30.2,87,29.33,1.0,ESE,21.9,31.1,0.00,Snow,Light Snow,110,2014-03-16 03:35:00
7:01 PM,33.1,30.9,92,29.57,1.0,ESE,25.3,39.1,0.01,Snow,Light Snow,120,2014-03-16 04:01:00
7:13 PM,33.8,30.2,87,29.26,1.2,ESE,24.2,38.0,0.00,Snow,Light Snow,120,2014-03-16 04:13:00